DateTimeUTC,F1_A11,F1_S11,BsB_S11,BsG_S11,BsR_S11,BbsB_S11,BbsG_S11,BbsR_S11,BaB_A11,BaG_A11,BaR_A11,Tu_S11,T_S11,Uu_S11,U_S11,P_S11,T1_A11
2021-05-26T20:00:00Z,00000200,20000000,,,,,,,-000.23,-000.16,0000.14,19.1,25.5,11.2,07.6,0678.3,31.0
2021-05-26T20:01:00Z,00000200,20000000,,,,,,,-000.04,0000.00,-000.26,19.1,25.5,10.9,07.4,0678.3,31.0
2021-05-26T20:02:00Z,00000200,20000000,,,,,,,0000.29,0000.11,0000.56,19.1,25.5,10.9,07.4,0678.3,31.1
2021-05-26T20:03:00Z,00000200,60000000,,,,,,,-000.00,0000.12,0000.07,19.1,25.5,10.9,07.4,0678.3,31.0
2021-05-26T20:04:00Z,00000200,40000000,0002.59,0002.10,0001.49,0000.09,0000.23,0000.19,-000.14,-000.04,-000.06,19.2,25.4,11.0,07.5,0679.3,31.0
2021-05-26T20:05:00Z,00000200,00000000,0002.24,0001.53,0001.16,0000.25,0000.08,0000.01,0000.48,0000.22,-000.03,19.2,25.4,11.0,07.5,0679.4,31.0
2021-05-26T20:06:00Z,00000200,00000000,0003.32,0001.81,0000.99,-000.11,-000.01,0000.01,-000.20,-000.10,0000.50,19.2,25.3,10.9,07.5,0679.4,31.0
2021-05-26T20:07:00Z,00000200,00000000,0003.00,0001.83,0000.87,0000.38,0000.23,-000.09,0000.28,0000.29,0000.25,19.2,25.3,11.0,07.6,0679.4,31.0
2021-05-26T20:08:00Z,00000200,00000000,0002.78,0001.76,0001.09,0001.06,-000.06,0000.16,0000.04,-000.21,-000.06,19.2,25.3,10.9,07.5,0679.5,31.0
2021-05-26T20:09:00Z,00000200,00000000,0002.34,0001.94,0001.10,-000.13,0000.22,-000.01,-000.27,0000.18,-000.10,19.2,25.3,10.9,07.5,0679.5,31.0
2021-05-26T20:10:00Z,00000200,00000000,0002.53,0002.02,0001.12,0000.28,0000.25,0000.09,0000.07,0000.03,0000.26,19.2,25.3,11.0,07.6,0679.5,31.1
2021-05-26T20:11:00Z,00000200,00000000,0002.94,0001.54,0001.22,0000.42,0000.17,-000.05,0000.27,0000.07,0000.36,19.3,25.3,10.9,07.6,0679.6,31.0
2021-05-26T20:12:00Z,00000200,00000000,0002.38,0001.75,0001.05,0000.66,0000.24,0000.06,-000.19,0000.15,0000.04,19.3,25.3,10.8,07.4,0679.6,31.0
2021-05-26T20:13:00Z,00000200,00000000,0002.88,0001.46,0001.01,0000.48,0000.07,0000.07,0000.29,0000.30,-000.26,19.3,25.3,10.9,07.5,0679.6,31.1
2021-05-26T20:14:00Z,00000200,00000000,0001.55,0001.77,0001.07,0000.19,0000.26,0000.01,-000.02,-000.32,0000.45,19.3,25.3,11.0,07.6,0679.6,31.0
2021-05-26T20:15:00Z,00000200,00000000,0001.62,0001.31,0001.09,0000.20,-000.02,0000.11,-000.09,0000.15,0000.11,19.3,25.3,10.9,07.5,0679.6,31.0
2021-05-26T20:16:00Z,00000200,00000000,0002.39,0001.74,0001.05,0000.37,0000.26,0000.38,0000.65,0000.29,0000.36,19.2,25.3,10.9,07.5,0679.7,31.0
2021-05-26T20:17:00Z,00000200,00000000,0002.70,0001.92,0001.01,0000.53,0000.01,-000.05,-000.04,0000.23,0000.00,19.3,25.3,10.8,07.5,0679.7,31.0
2021-05-26T20:18:00Z,00000200,00000000,0001.49,0001.55,0000.90,-000.25,0000.16,-000.01,0000.07,0000.03,0000.00,19.3,25.3,10.9,07.5,0679.7,31.0
2021-05-26T20:19:00Z,00000200,00000000,0002.55,0001.65,0001.10,0000.00,0000.12,-000.14,-000.37,-000.28,-000.02,19.3,25.3,10.8,07.5,0679.7,31.0
2021-05-26T20:20:00Z,00000200,00000000,0002.08,0001.61,0001.20,0000.04,0000.27,0000.15,0000.68,0000.41,0000.60,19.3,25.3,10.8,07.5,0679.7,31.1
2021-05-26T20:21:00Z,00000200,00000000,0001.85,0001.70,0000.81,0000.10,0000.35,-000.04,-000.50,0000.18,-000.14,19.2,25.3,10.9,07.5,0679.8,31.0
2021-05-26T20:22:00Z,00000200,00000000,0001.94,0001.72,0001.48,0000.30,0000.22,0000.08,0000.53,0000.18,0000.55,19.3,25.4,10.8,07.5,0679.8,31.0
2021-05-26T20:23:00Z,00000200,00000000,0001.61,0001.28,0001.06,0000.28,0000.31,-000.02,-000.14,-000.08,-000.11,19.3,25.3,10.9,07.5,0679.8,31.0
2021-05-26T20:24:00Z,00000200,00000000,0002.03,0001.43,0001.57,-000.31,0000.13,0000.31,0000.16,0000.54,0000.12,19.3,25.3,10.9,07.5,0679.8,31.0
2021-05-26T20:25:00Z,00000200,00000000,0002.89,0001.40,0001.24,0000.27,0000.12,0000.13,0000.05,-000.15,0000.34,19.3,25.4,10.9,07.5,0679.8,31.0
2021-05-26T20:26:00Z,00000200,00000000,0002.67,0001.37,0001.07,0000.17,0000.07,0000.03,0000.29,-000.21,-000.08,19.3,25.4,10.9,07.5,0679.8,31.0
2021-05-26T20:27:00Z,00000200,00000000,0002.67,0001.42,0000.98,0000.96,0000.33,-000.01,-000.33,-000.03,-000.43,19.3,25.4,10.7,07.4,0679.8,31.0
2021-05-26T20:28:00Z,00000200,00000000,0002.17,0001.50,0001.01,0000.35,0000.14,-000.04,-000.11,0000.02,0000.42,19.3,25.4,10.6,07.3,0679.8,31.0
2021-05-26T20:29:00Z,00000200,00000000,0002.29,0001.24,0001.41,0000.20,0000.17,0000.01,0000.59,0000.75,0000.39,19.3,25.4,10.7,07.4,0679.8,31.0
2021-05-26T20:30:00Z,00000200,00000000,0002.03,0001.34,0001.57,0000.51,0000.55,0000.25,-000.31,-000.50,-000.13,19.3,25.4,10.7,07.4,0679.9,31.0
2021-05-26T20:31:00Z,00000200,00000000,0002.66,0001.83,0001.16,0000.69,0000.48,-000.02,-000.34,0000.13,0000.09,19.3,25.4,10.6,07.3,0679.9,31.0
2021-05-26T20:32:00Z,00000200,00000000,0002.31,0001.36,0000.94,0000.06,0000.30,-000.12,0000.74,0000.34,0000.30,19.3,25.4,10.6,07.3,0679.9,31.0
2021-05-26T20:33:00Z,00000200,00000000,0002.96,0001.79,0001.27,0000.72,0000.29,-000.05,0000.11,-000.23,-000.00,19.3,25.4,10.6,07.3,0679.9,31.0
2021-05-26T20:34:00Z,00000200,00000000,0001.85,0001.53,0001.12,-000.30,0000.40,0000.12,0000.11,0000.69,0000.44,19.3,25.3,10.6,07.3,0679.9,31.0
2021-05-26T20:35:00Z,00000200,00000000,0002.82,0001.62,0001.31,0000.60,-000.02,0000.30,-000.27,-000.33,0000.05,19.3,25.3,10.6,07.3,0679.9,31.0
2021-05-26T20:36:00Z,00000200,00000000,0002.32,0001.59,0001.23,0000.52,0000.42,0000.30,0000.17,0000.19,0000.01,19.3,25.4,10.7,07.4,0679.9,31.0
2021-05-26T20:37:00Z,00000200,00000000,0003.01,0001.74,0001.26,0000.18,0000.01,0000.34,0000.13,0000.34,0000.41,19.3,25.3,10.7,07.4,0679.9,31.0
2021-05-26T20:38:00Z,00000200,00000000,0002.43,0001.90,0001.34,-000.09,0000.20,0000.19,0000.23,-000.05,0000.29,19.3,25.3,10.7,07.4,0679.9,31.0
2021-05-26T20:39:00Z,00000200,00000000,0002.63,0001.87,0001.62,0000.20,0000.04,0000.18,0000.20,0000.05,-000.31,19.3,25.3,10.6,07.3,0680.0,31.0
2021-05-26T20:40:00Z,00000200,00000000,0002.67,0001.86,0001.02,0000.53,0000.29,0000.05,0000.28,0000.69,0000.82,19.3,25.3,10.7,07.4,0680.0,31.0
2021-05-26T20:41:00Z,00000200,00000000,0001.89,0001.66,0001.30,0000.45,0000.09,0000.36,0000.42,0000.15,0000.36,19.3,25.4,10.8,07.4,0680.0,31.0
2021-05-26T20:42:00Z,00000200,00000000,0002.72,0001.46,0000.91,-000.04,-000.04,-000.07,-000.23,0000.13,-000.21,19.3,25.4,10.8,07.5,0680.0,31.0
2021-05-26T20:43:00Z,00000200,00000000,0002.14,0001.51,0001.11,0000.05,-000.07,0000.04,0000.26,0000.19,0000.32,19.3,25.3,10.9,07.6,0680.0,31.0
2021-05-26T20:44:00Z,00000200,00000000,0002.32,0001.40,0001.09,-000.07,0000.32,0000.12,0000.12,-000.12,0000.22,19.3,25.4,11.0,07.6,0680.0,31.0
2021-05-26T20:45:00Z,00000200,00000000,0002.57,0001.57,0000.97,-000.30,0000.23,0000.12,0000.28,0000.30,0000.35,19.3,25.4,11.0,07.6,0680.1,31.1
2021-05-26T20:46:00Z,00000200,00000000,0002.27,0001.27,0000.92,0000.40,0000.28,0000.06,0000.13,0000.29,0000.06,19.3,25.4,11.1,07.7,0680.0,31.0
2021-05-26T20:47:00Z,00000200,00000000,0001.78,0001.30,0000.78,0000.35,-000.03,0000.10,0000.41,0000.05,0000.44,19.3,25.3,11.0,07.6,0680.1,31.0
2021-05-26T20:48:00Z,00000200,00000000,0001.83,0001.66,0001.38,0000.58,0000.41,0000.21,-000.31,0000.14,0000.04,19.3,25.4,11.1,07.7,0680.1,31.0
2021-05-26T20:49:00Z,00000200,00000000,0002.22,0001.53,0000.99,0000.59,0000.22,0000.11,0000.20,-000.10,0000.09,19.3,25.4,10.9,07.6,0680.1,31.0
2021-05-26T20:50:00Z,00000200,00000000,0002.04,0001.63,0001.06,0000.20,0000.22,-000.07,0000.28,0000.07,0000.08,19.3,25.4,11.0,07.6,0680.0,31.0
2021-05-26T20:51:00Z,00000200,00000000,0002.64,0001.45,0001.06,0000.03,0000.16,-000.00,-000.58,0000.34,-000.07,19.3,25.3,11.0,07.6,0680.0,31.0
2021-05-26T20:52:00Z,00000200,00000000,0002.59,0001.41,0001.06,0000.58,-000.01,-000.06,0000.60,-000.05,-000.02,19.3,25.3,11.0,07.6,0680.0,31.0
2021-05-26T20:53:00Z,00000200,00000000,0001.92,0001.36,0000.95,0000.70,0000.26,0000.16,0000.41,0000.63,0000.37,19.3,25.3,11.0,07.6,0680.0,31.0
2021-05-26T20:54:00Z,00000200,00000000,0001.96,0001.51,0001.34,0000.59,0000.32,-000.02,-000.24,-000.12,0000.33,19.3,25.4,11.0,07.6,0680.0,31.0
2021-05-26T20:55:00Z,00000200,00000000,0002.23,0001.43,0001.38,0000.26,0000.10,0000.45,-000.23,-000.32,-000.07,19.3,25.4,11.0,07.7,0680.0,31.0
2021-05-26T20:56:00Z,00000200,00000000,0001.28,0001.63,0001.16,0000.82,0000.45,0000.12,0000.74,0000.37,0000.45,19.3,25.4,11.0,07.6,0680.0,31.0
2021-05-26T20:57:00Z,00000200,40000000,,,,,,,-000.01,0000.22,-000.09,19.4,25.4,10.9,07.6,0680.0,31.0
2021-05-26T20:58:00Z,00000200,60000000,,,,,,,-000.20,-000.25,-000.10,19.2,25.5,11.0,07.5,0679.0,31.0
2021-05-26T20:59:00Z,00000200,20000000,,,,,,,-000.08,0000.33,-000.02,19.1,25.6,11.0,07.4,0679.0,31.0
